This is the latest recevied weather packets stored in our database for station/object KR4KUV. If no packets are shown the sender has not sent any weather packets the latest 10 day(s).
| Time | Temp. | Humidity | Pressure | Rain* | Wind** | Luminosity | Snow |
|---|---|---|---|---|---|---|---|
| 1787602851 | 31.67° C | 46% | 1016.7 hPa | 0 mm | - | 540 W/m² | - |
| 1787602551 | 31.67° C | 48% | 1016.8 hPa | 0 mm | - | 526 W/m² | - |
| 1787602246 | 31.67° C | 45% | 1016.9 hPa | 0 mm | - | 560 W/m² | - |
| 1787601944 | 31.67° C | 46% | 1016.8 hPa | 0 mm | - | 563 W/m² | - |
| 1787601640 | 31.67° C | 48% | 1016.8 hPa | 0 mm | - | 543 W/m² | - |
| 1787601334 | 31.11° C | 49% | 1016.8 hPa | 0 mm | - | 569 W/m² | - |
| 1787601027 | 31.67° C | 46% | 1016.9 hPa | 0 mm | - | 606 W/m² | - |
| 1787600722 | 31.11° C | 47% | 1016.8 hPa | 0 mm | - | 597 W/m² | - |
| 1787600418 | 31.11° C | 47% | 1016.9 hPa | 0 mm | - | 599 W/m² | - |
| 1787600114 | 31.11° C | 47% | 1016.8 hPa | 0 mm | - | 629 W/m² | - |
| 1787599810 | 31.67° C | 44% | 1016.9 hPa | 0 mm | - | 647 W/m² | - |
| 1787599506 | 31.67° C | 49% | 1016.9 hPa | 0 mm | - | 655 W/m² | - |
| 1787599202 | 31.67° C | 49% | 1017.1 hPa | 0 mm | - | 662 W/m² | - |
| 1787598897 | 31.11° C | 48% | 1017.2 hPa | 0 mm | - | 631 W/m² | - |
| 1787598593 | 31.11° C | 46% | 1017.1 hPa | 0 mm | - | 676 W/m² | - |
| 1787598288 | 31.11° C | 48% | 1017.2 hPa | 0 mm | - | 677 W/m² | - |
| 1787597983 | 31.11° C | 50% | 1017.2 hPa | 0 mm | - | 685 W/m² | - |
| 1787597678 | 31.67° C | 49% | 1017.2 hPa | 0 mm | - | 655 W/m² | - |
| 1787597377 | 31.67° C | 51% | 1017.1 hPa | 0 mm | - | 698 W/m² | - |
| 1787597072 | 30.56° C | 53% | 1017.1 hPa | 0 mm | - | 694 W/m² | - |
| 1787596769 | 31.11° C | 52% | 1017.2 hPa | 0 mm | - | 724 W/m² | - |
| 1787596464 | 30.56° C | 50% | 1017.2 hPa | 0 mm | - | 717 W/m² | - |
| 1787596158 | 30.56° C | 49% | 1017.3 hPa | 0 mm | - | 739 W/m² | - |
| 1787595855 | 30.56° C | 52% | 1017.5 hPa | 0 mm | - | 749 W/m² | - |
| 1787595550 | 30.56° C | 50% | 1017.3 hPa | 0 mm | - | 740 W/m² | - |
* Rain latest hour (hover to see other rain measurements)
** Current wind speed in m/s (hover to see current wind gust speed)